Location: Chacón
(10.5789°N, 66.9317°W)
Time: 23:16:18
(UTC+00:00)

Cosmos 2233 Rocket - Pass Details

Date: 23 May 2024
Orbit: 953 x 989 km, 82.9° (Epoch: 25 June)

Event Time Altitude Azimuth Distance (km) Brightness Sun altitude
Rises 00:00:38 0° 351° (N) 3,690 7.5 -18.1°
Reaches altitude 10° 00:03:10 10° 348° (NNW) 2,742 6.9 -18.6°
Maximum altitude 00:09:23 65° 268° (W) 1,080 4.4 -20.0°
Drops below altitude 10° 00:15:35 10° 187° (S) 2,733 6.1 -21.3°
Enters shadow 00:17:39 - 184° (S) 3,504 6.7 -21.8°
